Regional Weather Roundup
Issued by NWS Charleston, SC

Current Version | Previous Version | Text Only | Print | Product List | Glossary On
Versions: 1 2 3 4 5 6 7 8 9 10 11 12 13 14 15 16 17 18 19 20 21 22 23 24 25 26 27 28 29 30 31 32 33 34 35 36 37 38 39 40 41 42 43 44 45 46 47 48 49 50
000 ASUS42 KCHS 211825 RWRCHS REGIONAL WEATHER ROUNDUP NATIONAL WEATHER SERVICE CHARLESTON SC 200 PM EDT SUN SEP 21 2014 NOTE: "FAIR" INDICATES FEW OR NO CLOUDS BELOW 12,000 FEET WITH NO SIGNIFICANT WEATHER AND/OR OBSTRUCTIONS TO VISIBILITY. NOT ALL STATIONS ARE QUALITY CONTROLLED BY THE NATIONAL WEATHER SERVICE. USE DATA WITH CAUTION...ESPECIALLY DEWPOINT OBSERVATIONS. SCZ027-030-031-034>040-042>050-211900- ...SOUTH CAROLINA... CITY SKY/WX TMP DP RH WIND PRES REMARKS N CHARLESTON MOSUNNY 86 62 44 NW8 29.92F 6HR MIN TEMP: 67; 6HR MAX TEMP: 86; WATERFRONT PRK N/A 84 N/A N/A NW7G13 N/A FORT JOHNSON NOT AVBL MOUNT PLEASANT FAIR 84 63 48 W9 29.91F JOHNS ISLAND N/A 86 72 62 NW10 29.92F HX 92 PINOPOLIS N/A 82 64 54 NW7 29.86F MONCKS CORNER N/A 86 68 54 NW6 29.92F SUMMERVILLE FAIR 86 64 48 W10 29.93F BEAUFORT MCAS SUNNY 86 64 47 S9 29.94F 6HR MIN TEMP: 66; 6HR MAX TEMP: 86; BEAUFORT ARPT FAIR 86 64 48 W10 29.93F HILTON HEAD IS SUNNY 84 66 54 W8 29.96F GEORGETOWN NOT AVBL WALTERBORO CLEAR 88 57 35 NW7 29.93F ORANGEBURG SUNNY 85 62 46 W8 29.93F 6HR MIN TEMP: 62; 6HR MAX TEMP: 85; BARNWELL FAIR 88 63 42 W9 29.94F AIKEN FAIR 86 68 54 W15 29.97F MANNING FAIR 88 64 45 NW7 29.90F KINGSTREE NOT AVBL COLUMBIA SUNNY 87 60 40 W10 29.91F 6HR MIN TEMP: 62; 6HR MAX TEMP: 88; SUMTER SUNNY 86 66 51 W8 29.90F 6HR MIN TEMP: 63; 6HR MAX TEMP: 86; FLORENCE SUNNY 85 62 46 W8 29.89F 6HR MIN TEMP: 66; 6HR MAX TEMP: 85; MYRTLE BEACH MOSUNNY 82 61 47 NW12 29.89F N MYRTLE BEACH MOSUNNY 83 59 44 NW10G17 29.88F 6HR MIN TEMP: 69; 6HR MAX TEMP: 83; $$ GAZ063-065-086>088-099>101-113>116-118-119-134-136>141-150-211900- ...GEORGIA... CITY SKY/WX TMP DP RH WIND PRES REMARKS SAVANNAH ARPT MOSUNNY 87 63 44 NW9 29.96F 6HR MIN TEMP: 64; 6HR MAX TEMP: 87; HUNTER AAF SUNNY 86 65 49 NW8 29.94F 6HR MIN TEMP: 63; 6HR MAX TEMP: 86; FORT STEWART SUNNY 87 62 43 NW8 29.96F 6HR MIN TEMP: 64; 6HR MAX TEMP: 87; STATESBORO NOT AVBL SYLVANIA CLEAR 87 67 50 NW10 29.96F HX 90 CLAXTON FAIR 88 66 48 W8 29.96F HX 90 THOMSON SUNNY 87 70 57 W9 30.00F HX 91 AUGUSTA-BUSH MOSUNNY 88 61 40 W12 29.94F 6HR MIN TEMP: 58; 6HR MAX TEMP: 89; AUGUSTA-DANIEL SUNNY 86 62 44 VRB7G16 29.96F SWAINSBORO FAIR 88 64 45 W8 29.98F VIDALIA MOSUNNY 86 63 45 W8 29.98F ALMA SUNNY 87 57 35 VRB6 29.99F 6HR MIN TEMP: 61; 6HR MAX TEMP: 87; WAYCROSS NOT AVBL JESUP FAIR 90 61 37 N8 29.97F BRUNSWICK SUNNY 86 57 37 NW7 29.98F SAINT SIMONS SUNNY 85 61 44 VRB6 29.98F 6HR MIN TEMP: 66; 6HR MAX TEMP: 85; $$ SCZ027-028-034-036>038-045-046-048>050-GAZ119-141-211900- ...LAKE AND SUPPLEMENTAL COASTAL OBSERVATIONS... STATION/POSITION TIME TEMP WIND PRES WAVE SWELL AIR SEA DIR/SP/G HT/PER HT/PER/DIR (UTC) (F) (DEG/KT/KT) (MB) (FT/S) (FT/S/D) UPR LAKE MARION NOT AVBL WINYAH BAY 1800 81 290/ 7 1012.0S LAKE MURRAY 1700 81 270/ 8/ 14 1012.9F ACE BASIN NERRS 1800 84 290/ 4 1014.0F FORT PULASKI 1800 82 280/ 10/ 12 1014.5F SAPELO ISLAND 1800 87 340/ 7 1016.0S $$ ANZ835-935-AMZ111-154-330-350-352-354-374-450-454-472-211900- ...C-MAN AND BUOY OBSERVATIONS... STATION/POSITION TIME TEMP WIND PRES WAVE SWELL AIR SEA DIR/SP/G HT/PER HT/PER/DIR (UTC) (F) (DEG/KT/KT) (MB) (FT/S) (FT/S/D) FOLLY BEACH CMAN 1800 84 290/ 6/ 9 1013.7F BUOY 41004 1800 78 81 290/ 10/ 14 1013.2F 5/ 7 3/ 7 BUOY 41008 1800 78 83 290/ 4/ 8 1015.2F 3/ 7 3/ 80/ 7 5E ST. MARYS GA 1800 83 N/A 3/10 FRYING PAN BUOY NOT AVBL BUOY 41025 NOT AVBL CAPE LOOKOUT NC 1800 78 310/ 12/ 14 1008.9S BUOY 41002 1704 80 81 270/ 19/ 25 1011.8R 10/ 8 BUOY 41010 1800 81 85 270/ 4/ 6 1015.3F 4/10 3/10 BUOY 41012 NOT AVBL ST AUGUSTINE FL 1800 78 40/ 6/ 8 1016.4F CAPERS NEARSHORE 1700 80 270/ 10/ 14 N/A FRIPP NEARSHORE NOT AVBL $$

USA.gov is the U.S. government's official web portal to all federal, state and local government web resources and services.